Location: ??????????
(31.2156°N, 29.9553°E)
Time: 07:20:51
(UTC+00:00)

NOSS 3-2 (A) - Pass Details

Date: 03 March 2021
Orbit: 780 x 1427 km, 63.4° (Epoch: 31 March)

Event Time Altitude Azimuth Distance (km) Brightness Sun altitude
Rises 18:18:41 0° 214° (SW) 3,256 6.5 -30.3°
Reaches altitude 10° 18:21:00 10° 216° (SW) 2,352 5.8 -30.8°
Enters shadow 18:24:44 46° 232° (SW) 1,092 3.9 -31.6°
